Bicycle Lake Army Air Field
KBYS : now visible

Airfield :











YOU CAN JOIN US ON...

 
LOGIN :

Register | Disclaimer

   EN    FR    IT 

 









Legend :    VFR   Marginal VFR   IFR   Intensive IFR   Very Intensive IFR
Visi :
Ceiling :
>= 8 km
>= 3000ft
5 to 8 km
1000 to 3000 ft
1500m to 5 km
500 to 1000 ft
800 to 1500m
200 to 500 ft
< 800m
< 200 ft
Symbols :   Thunderstorms  Fog  Heavy snow  Heavy precipitations  Wind > 20 kt






- Airport Elevation : 2350 ft


KBYS - Bicycle Lake Army Air Field

CURRENT METAR :
  • 031258Z AUTO 04005KT 9SM CLR 26/01 A3003 RMK AO2 SLP135 T02560009 $

EXPIRED METARs :
  • 031158Z AUTO 03006KT 10SM CLR 27/01 A3002 RMK AO2 SLP131 T02680012 10330 20263 52005 $
  • 031058Z AUTO 35005KT 10SM CLR 27/01 A3001 RMK AO2 SLP128 T02690011 $

Expired Forecast.
KZLA FIR / North America



MET'MAP, your aeronautical weather chart ! - Copyright ORBIFLY December 2007 - Disclaimer

ORBIFLY MET'MAP TEAM :

Programming & Development : Alexandra Zaïnal
Concept & original design : Baudouin d'Aumeries
Assistance for programming : Marc-Olivier Méhu
Technical & hardware support : Manuel Goepfert

Contact : metmap@orbifly.com




SOURCES & CREDITS :

   NOAA       Earth
Advisory